Effective Sunday, March 17, 2024, the National Weather Service National Data Buoy Center will discontinue its Dial-A-Buoy Interactive Voice Response system. For more information, see Service Change Notice 24-06 (PDF).

Station SBIO1 - South Bass Island, OH Image indicating link to RSS feed of recent meteorological observations for station SBIO1


Conditions at SBIO1 as of
(6:00 pm EST)
2300 GMT on 02/23/2024:
     

Click on the graph icon in the table below to see a time series plot of the last five days of that observation.

5-day plot - Wind Direction Wind Direction (WDIR): N ( 10 deg true )
5-day plot - Wind Speed Wind Speed (WSPD): 7 kts
5-day plot - Wind Gust Wind Gust (GST): 14 kts
5-day plot - Atmospheric Pressure Atmospheric Pressure (PRES):29.66 in
5-day plot - Pressure Tendency Pressure Tendency (PTDY):+0.07 in ( Rising )
5-day plot - Air Temperature Air Temperature (ATMP): 38.8 °F
5-day plot - Wind Chill Wind Chill (CHILL): 33.1 °F
5-day plot - Wind Speed at 10 Meters Wind Speed at 10 meters (WSPD10M): 6 kts
5-day plot - Wind Speed at 20 Meters Wind Speed at 20 meters (WSPD20M): 8 kts
5-day plot -  Wind Speed, Wind Gust and Atmospheric Pressure Combined plot of Wind Speed, Gust, and Air Pressure
Continuous Winds
TIME
(EST)
5-day plot - Wind Direction WDIR 5-day plot - Wind Speed WSPD
6:00 pmNNE ( 23 deg ) 6 kts
5:50 pmNE ( 40 deg ) 7 kts
5:40 pmNE ( 46 deg ) 8 kts
5:30 pmNE ( 53 deg ) 6 kts
5:20 pmENE ( 60 deg ) 6 kts
5:10 pmENE ( 66 deg ) 5 kts
 
Peak gust during the measurement hour
TIME
(EST)
5-day plot - Gust Direction GDR 5-day plot - Gust Speed GST
5:59 pmNNE ( 20 deg ) 14 kts
Previous observations
TIME
(EST)
5-day plot - Wind Direction
WDIR
 
5-day plot - Wind Speed
WSPD
kts
5-day plot - Wind Gust
GST
kts
5-day plot - Wave Height
WVHT
ft
5-day plot - Dominant Wave Period
DPD
sec
5-day plot - Average Wave Period
APD
sec
5-day plot - Mean Wave Direction
MWD
 
5-day plot - Atmospheric Pressure
PRES
in
5-day plot - Pressure Tendency
PTDY
in
5-day plot - Air Temperature
ATMP
°F
5-day plot - Water Temperature
WTMP
°F
5-day plot - Dew Point
DEWP
°F
5-day plot - Salinity
SAL
psu
5-day plot - Visibility
VIS
nmi
5-day plot - Tide (above MLLW)
TIDE
ft
2024-02-23 05:00 pmENE 5 8----29.63+0.04 40.3-----
2024-02-23 04:00 pmENE 4 7----29.60+0.00 43.0-----
2024-02-23 03:00 pmNNW 5 8----29.59-0.01 42.4-----
2024-02-23 02:00 pm NW 3 4----29.59+0.00 37.8-----
2024-02-23 01:00 pmWNW 5 6----29.60+0.01 37.2-----
2024-02-23 12:00 pmWNW 9 9----29.60+0.00 37.4-----
2024-02-23 11:00 am W 9 10----29.59+0.02 37.6-----
2024-02-23 10:00 amWSW 10 10----29.59+0.02 36.0-----
2024-02-23 09:00 am SW 10 11----29.59+0.02 35.8-----
2024-02-23 08:00 am SW 12 14----29.57+0.00 36.7-----
2024-02-23 07:00 am SW 10 11----29.57-0.01 37.9-----
2024-02-23 06:00 amSSW 13 14----29.57-0.02 39.2-----
2024-02-23 05:00 amSSW 13 14----29.57-0.03 39.9-----
2024-02-23 04:00 am S 11 11----29.58-0.03 39.9-----
2024-02-23 03:00 amSSW 8 8----29.59-0.03 38.8-----
2024-02-23 02:00 am SW 5 5----29.60-0.04 36.0-----
2024-02-23 01:00 amSSW 6 6----29.61-0.03 34.9-----
2024-02-23 12:00 am S 7 8----29.62-0.02 36.7-----
2024-02-22 11:00 pmSSW 6 6----29.64+0.00 36.3-----
2024-02-22 10:00 pm S 2 2----29.64+0.00 36.3-----
2024-02-22 09:00 pm- 0 1----29.65+0.01 38.1-----
2024-02-22 08:00 pm NW 4 4----29.64+0.01 40.5-----
2024-02-22 07:00 pm W 4 5----29.64+0.02 41.0-----
2024-02-22 06:00 pmSSW 2 3----29.64+0.00 39.9-----